Madison, MN

11:46 PM CST on November 17, 2019 (GMT -0600)
Madison-Lac Qui Parle County

Weather History for KDXX - July, 2019

Change the Weather History Date:

Monday, July 22, 2019

  Actual Average (WUND) Record (WUND)
Temperature  
Mean Temperature 68 °F -  
Max Temperature 77 °F - - (-1)
Min Temperature 59 °F - - (-1)
Cooling Degree Days 3    
Growing Degree Days 18 (Base 50)    
Moisture  
Dew Point 57 °F    
Average Humidity 69    
Maximum Humidity 100    
Minimum Humidity 44    
Precipitation  
Precipitation 0.00 in - - ()
Sea Level Pressure  
Sea Level Pressure 30.27 in    
Wind  
Wind Speed 5 mph (NNW)    
Max Wind Speed 12 mph    
Max Gust Speed 16 mph    
Visibility 10 miles    
Events      
Averages and records for this station are not official NWS values.
T = Trace of Precipitation, MM = Missing Value Source: NWS Daily Summary

Daily Weather History Graph

Daily Weather History Graph

Search for Another Location

Airport or City:

Astronomy

Jul. 22, 2019 Rise Set
Actual Time 5:59 AM CDT 9:02 PM CDT
Civil Twilight 5:23 AM CDT 9:37 PM CDT
Nautical Twilight 4:38 AM CDT 10:22 PM CDT
Astronomical Twilight 3:44 AM CDT 11:16 PM CDT
Moon No Moon Rise 11:29 AM CDT (7/22)
Length of Visible Light 16h 13m
Length of Day
15h 03m
Waning Gibbous, 72% of the Moon is Illuminated
Jul 22
Waning Gibbous
Jul 24
Last Quarter
Jul 31
New
Aug 7
First Quarter
Aug 15
Full

Hourly Weather History & Observations

Time (CDT) Temp. Dew Point Humidity Pressure Visibility Wind Dir Wind Speed Gust Speed Precip Events Conditions
12:15 AM 62.6 °F 60.8 °F 94% 30.21 in 10.0 mi WNW 4.6 mph - N/A   Clear
12:16 AM 62.6 °F 60.8 °F 94% 30.21 in 10.0 mi WNW 4.6 mph - N/A   Clear
12:35 AM 62.6 °F 60.8 °F 94% 30.22 in 10.0 mi WNW 4.6 mph - N/A   Clear
12:36 AM 62.6 °F 60.8 °F 94% 30.22 in 10.0 mi WNW 4.6 mph - N/A   Clear
12:58 AM 62.6 °F 60.8 °F 94% 30.22 in 10.0 mi WNW 5.8 mph - N/A   Clear
1:17 AM 62.6 °F 60.8 °F 94% 30.22 in 10.0 mi WNW 5.8 mph - N/A   Clear
1:36 AM 62.6 °F 60.8 °F 94% 30.22 in 10.0 mi WNW 5.8 mph - N/A   Clear
1:55 AM 62.6 °F 60.8 °F 94% 30.23 in 10.0 mi WNW 6.9 mph - N/A   Clear
1:56 AM 62.6 °F 60.8 °F 94% 30.23 in 10.0 mi WNW 6.9 mph - N/A   Clear
2:37 AM 60.8 °F 59.0 °F 94% 30.23 in 10.0 mi NW 6.9 mph - N/A   Clear
2:55 AM 60.8 °F 59.0 °F 94% 30.23 in 10.0 mi WNW 5.8 mph - N/A   Clear
3:15 AM 60.8 °F 59.0 °F 94% 30.23 in 10.0 mi NW 6.9 mph - N/A   Clear
3:16 AM 60.8 °F 59.0 °F 94% 30.23 in 10.0 mi NW 5.8 mph - N/A   Clear
3:35 AM 60.8 °F 57.2 °F 88% 30.23 in 10.0 mi NW 6.9 mph - N/A   Clear
3:36 AM 60.8 °F 57.2 °F 88% 30.23 in 10.0 mi NW 6.9 mph - N/A   Clear
3:59 AM 60.8 °F 59.0 °F 94% 30.23 in 10.0 mi NW 4.6 mph - N/A   Clear
4:16 AM 60.8 °F 57.2 °F 88% 30.24 in 10.0 mi WNW 6.9 mph - N/A   Clear
4:36 AM 59.0 °F 57.2 °F 94% 30.24 in 10.0 mi NNW 4.6 mph - N/A   Clear
4:55 AM 59.0 °F 57.2 °F 94% 30.24 in 10.0 mi NW 3.5 mph - N/A   Clear
5:15 AM 60.8 °F 57.2 °F 88% 30.25 in 10.0 mi NW 4.6 mph - N/A   Clear
5:19 AM 60.8 °F 57.2 °F 88% 30.25 in 10.0 mi NW 4.6 mph - N/A   Clear
5:37 AM 60.8 °F 57.2 °F 88% 30.26 in 10.0 mi NNW 5.8 mph - N/A   Clear
5:56 AM 60.8 °F 57.2 °F 88% 30.26 in 10.0 mi NNW 3.5 mph - N/A   Clear
6:15 AM 60.8 °F 57.2 °F 88% 30.27 in 10.0 mi NW 3.5 mph - N/A   Scattered Clouds
6:16 AM 60.8 °F 57.2 °F 88% 30.27 in 10.0 mi NW 3.5 mph - N/A   Scattered Clouds
6:35 AM 60.8 °F 57.2 °F 88% 30.27 in 10.0 mi NW 3.5 mph - N/A   Scattered Clouds
6:58 AM 60.8 °F 60.8 °F 100% 30.28 in 10.0 mi NNW 3.5 mph - N/A   Scattered Clouds
7:16 AM 62.6 °F 60.8 °F 94% 30.28 in 10.0 mi NNW 6.9 mph - N/A   Scattered Clouds
7:35 AM 62.6 °F 60.8 °F 94% 30.28 in 10.0 mi NNW 5.8 mph - N/A   Scattered Clouds
7:55 AM 64.4 °F 60.8 °F 88% 30.29 in 10.0 mi NNW 6.9 mph - N/A   Clear
7:56 AM 64.4 °F 59.0 °F 83% 30.29 in 10.0 mi NNW 5.8 mph - N/A   Clear
8:15 AM 64.4 °F 60.8 °F 88% 30.29 in 10.0 mi NNW 5.8 mph - N/A   Clear
8:19 AM 64.4 °F 59.0 °F 83% 30.30 in 10.0 mi NNW 5.8 mph - N/A   Clear
8:37 AM 66.2 °F 57.2 °F 73% 30.30 in 10.0 mi NNW 6.9 mph - N/A   Clear
8:55 AM 66.2 °F 59.0 °F 78% 30.30 in 10.0 mi NNW 5.8 mph - N/A   Clear
9:15 AM 68.0 °F 59.0 °F 73% 30.30 in 10.0 mi North 5.8 mph - N/A   Clear
9:35 AM 69.8 °F 57.2 °F 64% 30.30 in 10.0 mi North 5.8 mph - N/A   Clear
9:36 AM 69.8 °F 57.2 °F 64% 30.30 in 10.0 mi NNE 4.6 mph - N/A   Clear
9:58 AM 69.8 °F 57.2 °F 64% 30.31 in 10.0 mi North 4.6 mph - N/A   Clear
10:17 AM 71.6 °F 57.2 °F 60% 30.31 in 10.0 mi NNE 3.5 mph - N/A   Clear
10:36 AM 71.6 °F 55.4 °F 57% 30.31 in 10.0 mi NE 8.1 mph - N/A   Clear
10:55 AM 71.6 °F 55.4 °F 57% 30.31 in 10.0 mi NNE 8.1 mph - N/A   Clear
10:56 AM 71.6 °F 55.4 °F 57% 30.31 in 10.0 mi NNE 5.8 mph - N/A   Clear
11:15 AM 73.4 °F 55.4 °F 53% 30.31 in 10.0 mi North 5.8 mph - N/A   Clear
11:37 AM 73.4 °F 55.4 °F 53% 30.31 in 10.0 mi NE 3.5 mph - N/A   Clear
11:55 AM 73.4 °F 53.6 °F 50% 30.31 in 10.0 mi North 8.1 mph - N/A   Scattered Clouds
12:15 PM 73.4 °F 53.6 °F 50% 30.31 in 10.0 mi NNE 5.8 mph - N/A   Scattered Clouds
12:16 PM 73.4 °F 53.6 °F 50% 30.31 in 10.0 mi NNE 5.8 mph - N/A   Scattered Clouds
12:35 PM 73.4 °F 51.8 °F 47% 30.31 in 10.0 mi NE 3.5 mph - N/A   Clear
12:36 PM 73.4 °F 51.8 °F 47% 30.31 in 10.0 mi North 3.5 mph - N/A   Clear
12:59 PM 75.2 °F 53.6 °F 47% 30.31 in 10.0 mi Calm Calm - N/A   Scattered Clouds
1:16 PM 75.2 °F 55.4 °F 50% 30.31 in 10.0 mi NNE 5.8 mph - N/A   Scattered Clouds
1:36 PM 75.2 °F 53.6 °F 47% 30.30 in 10.0 mi Calm Calm - N/A   Scattered Clouds
1:55 PM 75.2 °F 55.4 °F 50% 30.30 in 10.0 mi NNW 5.8 mph - N/A   Scattered Clouds
1:56 PM 75.2 °F 55.4 °F 50% 30.30 in 10.0 mi NNW 5.8 mph - N/A   Scattered Clouds
2:15 PM 75.2 °F 53.6 °F 47% 30.30 in 10.0 mi NNW 4.6 mph - N/A   Mostly Cloudy
2:19 PM 73.4 °F 53.6 °F 50% 30.30 in 10.0 mi NNW 8.1 mph - N/A   Mostly Cloudy
2:37 PM 75.2 °F 53.6 °F 47% 30.29 in 10.0 mi NW 8.1 mph - N/A   Mostly Cloudy
2:56 PM 75.2 °F 53.6 °F 47% 30.28 in 10.0 mi NW 5.8 mph - N/A   Scattered Clouds
3:15 PM 75.2 °F 53.6 °F 47% 30.28 in 10.0 mi NW 5.8 mph - N/A   Scattered Clouds
3:16 PM 75.2 °F 53.6 °F 47% 30.28 in 10.0 mi WNW 5.8 mph - N/A   Scattered Clouds
3:35 PM 77.0 °F 55.4 °F 47% 30.28 in 10.0 mi NNW 10.4 mph - N/A   Clear
3:36 PM 77.0 °F 55.4 °F 47% 30.28 in 10.0 mi NNW 10.4 mph - N/A   Clear
3:58 PM 77.0 °F 55.4 °F 47% 30.28 in 10.0 mi WNW 9.2 mph - N/A   Clear
4:16 PM 77.0 °F 55.4 °F 47% 30.27 in 10.0 mi NNW 11.5 mph 16.1 mph N/A   Scattered Clouds
4:35 PM 77.0 °F 55.4 °F 47% 30.27 in 10.0 mi NNW 8.1 mph - N/A   Scattered Clouds
4:55 PM 77.0 °F 55.4 °F 47% 30.27 in 10.0 mi NW 6.9 mph - N/A   Clear
4:56 PM 77.0 °F 55.4 °F 47% 30.27 in 10.0 mi NW 6.9 mph - N/A   Clear
5:18 PM 77.0 °F 53.6 °F 44% 30.26 in 10.0 mi NNW 9.2 mph - N/A   Scattered Clouds
5:37 PM 77.0 °F 53.6 °F 44% 30.26 in 10.0 mi North 11.5 mph 16.1 mph N/A   Scattered Clouds
5:56 PM 77.0 °F 55.4 °F 47% 30.25 in 10.0 mi NNW 9.2 mph - N/A   Scattered Clouds
6:15 PM 75.2 °F 55.4 °F 50% 30.25 in 10.0 mi NNW 6.9 mph - N/A   Scattered Clouds
6:16 PM 75.2 °F 55.4 °F 50% 30.25 in 10.0 mi NW 5.8 mph - N/A   Scattered Clouds
6:35 PM 75.2 °F 55.4 °F 50% 30.24 in 10.0 mi NW 8.1 mph - N/A   Mostly Cloudy
6:39 PM 75.2 °F 55.4 °F 50% 30.24 in 10.0 mi NW 9.2 mph - N/A   Scattered Clouds
6:57 PM 75.2 °F 55.4 °F 50% 30.24 in 10.0 mi NNW 8.1 mph - N/A   Scattered Clouds
7:16 PM 75.2 °F 55.4 °F 50% 30.24 in 10.0 mi NW 8.1 mph - N/A   Scattered Clouds
7:35 PM 75.2 °F 55.4 °F 50% 30.24 in 10.0 mi NW 6.9 mph - N/A   Scattered Clouds
7:36 PM 75.2 °F 55.4 °F 50% 30.24 in 10.0 mi NW 6.9 mph - N/A   Scattered Clouds
7:55 PM 75.2 °F 55.4 °F 50% 30.24 in 10.0 mi North 4.6 mph - N/A   Scattered Clouds
7:56 PM 75.2 °F 55.4 °F 50% 30.24 in 10.0 mi North 3.5 mph - N/A   Scattered Clouds
8:18 PM 73.4 °F 55.4 °F 53% 30.25 in 10.0 mi NW 5.8 mph - N/A   Mostly Cloudy
8:36 PM 71.6 °F 57.2 °F 60% 30.24 in 10.0 mi NNW 5.8 mph - N/A   Scattered Clouds
8:55 PM 69.8 °F 57.2 °F 64% 30.24 in 10.0 mi NNW 4.6 mph - N/A   Clear
9:15 PM 69.8 °F 57.2 °F 64% 30.24 in 10.0 mi NNW 5.8 mph - N/A   Clear
9:16 PM 68.0 °F 57.2 °F 68% 30.25 in 10.0 mi NNW 5.8 mph - N/A   Clear
9:35 PM 66.2 °F 57.2 °F 73% 30.25 in 10.0 mi NNW 4.6 mph - N/A   Clear
9:39 PM 66.2 °F 57.2 °F 73% 30.25 in 10.0 mi NNW 4.6 mph - N/A   Clear
9:58 PM 66.2 °F 57.2 °F 73% 30.25 in 10.0 mi North 3.5 mph - N/A   Clear
10:16 PM 66.2 °F 57.2 °F 73% 30.26 in 10.0 mi Calm Calm - N/A   Clear
10:35 PM 66.2 °F 57.2 °F 73% 30.26 in 10.0 mi Calm Calm - N/A   Clear
10:55 PM 64.4 °F 57.2 °F 77% 30.26 in 10.0 mi Calm Calm - N/A   Clear
10:59 PM 64.4 °F 57.2 °F 77% 30.26 in 10.0 mi Calm Calm - N/A   Clear
11:17 PM 62.6 °F 59.0 °F 88% 30.27 in 10.0 mi West 3.5 mph - N/A   Clear
11:36 PM 62.6 °F 59.0 °F 88% 30.27 in 7.0 mi WNW 3.5 mph - N/A   Clear
11:55 PM 62.6 °F 59.0 °F 88% 30.27 in 10.0 mi Calm Calm - N/A   Clear
11:56 PM 62.6 °F 59.0 °F 88% 30.27 in 10.0 mi Calm Calm - N/A   Clear